Вернуться в каталог

STARLINK-37841

АктивенСвязьVLEO
NORAD 69951·PAYLOAD·🇺🇸 United States

Запущен Jul 9, 2026 с Cape Canaveral Space Force Station

Loading…

Ближайшие Пролёты (ближайшие 24 часа)

TLE

СвежийSource: CelesTrak SupGP

Эпоха: Sep 14, 2026, 23:32 UTC

1 69951C 26157J   26257.98104167 -.00006558  00000+0 -19377-3 0  2571
2 69951  53.1585 359.7162 0001170  84.9292 252.2618 15.34393785    10

Отслеживайте STARLINK-37841 в реальном времени с AllMySat

Download on the App Store